Location: Lake Arresoe
(56.0000°N, 12.5000°E)
Time: 23:06:11
(UTC+02:00)

Cosmos 1674 - Visible Passes

Search period start: 16 September 2019 00:00
Search period end: 26 September 2019 00:00
Orbit: 495 x 519 km, 82.5° (Epoch: 15 September)

Date Brightness Start Highest point End Pass type
(mag) Time Alt. Az. Time Alt. Az. Time Alt. Az.
16 Sep 3.5 20:52:00 10° N 20:55:25 32° ENE 20:57:01 22° ESE visible
16 Sep 4.3 22:27:39 10° NNW 22:30:56 29° W 22:31:52 26° WSW visible
17 Sep 3.8 20:34:29 10° N 20:37:43 26° ENE 20:39:41 17° ESE visible
17 Sep 4.0 22:09:54 10° NNW 22:13:22 36° W 22:14:32 28° SW visible
18 Sep 4.0 20:17:00 10° N 20:20:00 22° ENE 20:22:23 13° ESE visible
18 Sep 3.6 21:52:10 10° NNW 21:55:46 45° W 21:57:14 29° SSW visible
19 Sep 4.2 19:59:33 10° NNE 20:02:16 19° ENE 20:04:57 10° ESE visible
19 Sep 3.2 21:34:30 10° NNW 21:38:10 57° W 21:39:57 27° SSW visible
20 Sep 2.8 21:16:49 10° NNW 21:20:33 72° W 21:22:42 24° S visible
21 Sep 2.5 20:59:10 10° NNW 21:02:55 90° WNW 21:05:30 19° S visible
21 Sep 5.7 22:36:34 10° WNW 22:37:50 11° W 22:39:05 10° W visible
22 Sep 2.5 20:41:32 10° N 20:45:17 73° ENE 20:48:21 15° SSE visible
22 Sep 5.5 22:18:20 10° NW 22:20:19 14° W 22:22:18 10° WSW visible
23 Sep 2.7 20:23:56 10° N 20:27:38 58° ENE 20:31:14 10° SSE visible
23 Sep 5.4 22:00:19 10° NW 22:02:47 17° W 22:05:14 10° SW visible
24 Sep 2.9 20:06:20 10° N 20:09:58 46° ENE 20:13:33 10° SSE visible
24 Sep 5.1 21:42:25 10° NW 21:45:14 21° W 21:48:03 10° SW visible
25 Sep 3.2 19:48:46 10° N 19:52:16 37° ENE 19:55:46 10° SE visible
25 Sep 4.8 21:24:35 10° NNW 21:27:41 25° W 21:30:47 10° SW visible
